Vorticity
16 22 15 34 36 20 23 15 14 10 9 8 7 8 8 7 6 7 5 2 2 4 8 -3 4 -2 2 7 7 8 4 14 5 7 10 -2 3 5 6 7 8 8 8 8
10 34 22 34 26 24 25 17 15 11 8 7 10 8 8 7 7 6 6 6 5 3 4 4 2 5 13 8 6 8 7 9 6 10 -1 -1 5 6 9 9 8 8 8 7
19 22 20 29 24 30 28 13 18 9 13 8 8 8 8 9 6 4 5 8 4 5 7 -3 10 11 -2 2 2 6 5 6 8 9 -8 7 7 9 9 8 7 7 5 7
23 16 16 25 30 28 27 13 17 16 13 8 11 10 10 10 10 7 7 7 8 4 2 4 -1 2 1 2 1 5 4 5 4 4 6 6 9 8 7 6 5 7 10 11
21 23 23 25 26 29 22 15 2 37 40 -4 22 10 8 9 8 10 10 10 10 8 6 5 6 9 11 13 7 5 5 6 6 8 9 8 7 6 6 6 10 13 10 2
17 20 17 26 22 23 13 26 7 21 -8 12 5 19 15 12 10 10 11 11 10 9 7 9 12 12 8 6 6 6 5 7 9 9 8 7 6 5 8 13 10 0 1 2
12 15 15 14 18 18 16 12 2 3 5 14 12 10 9 18 12 16 16 15 13 12 16 15 7 6 6 7 6 7 7 8 9 9 8 5 7 11 15 4 1 2 0 3
17 11 11 29 13 17 12 13 0 18 15 11 14 11 13 15 10 12 15 17 10 2 2 5 8 7 6 6 4 9 12 9 9 6 6 9 14 11 0 3 1 1 1 2
37 45 16 7 16 12 17 -27 38 2 9 20 11 8 9 23 14 7 2 1 5 11 12 10 7 6 3 7 12 8 7 9 5 8 11 15 2 3 1 2 2 3 4 4
36 17 14 14 14 10 14 7 12 8 9 11 8 13 18 8 5 6 6 8 9 8 5 6 6 3 10 7 7 7 7 6 8 14 7 2 2 3 3 2 3 3 5 8
12 31 11 14 14 15 8 11 10 5 7 7 5 7 8 10 8 11 7 8 7 9 9 2 7 10 4 6 9 6 7 11 12 3 2 2 1 1 3 4 6 7 8 8
9 3 5 55 7 16 14 8 5 5 3 7 7 22 25 11 14 11 12 10 3 6 6 6 7 5 9 9 5 8 13 3 2 1 1 1 3 5 6 7 9 9 9 8
12 21 5 15 40 9 9 8 12 4 15 31 21 11 9 7 6 6 5 9 7 7 9 8 9 8 5 5 9 10 3 3 0 1 1 3 6 8 10 9 9 8 7 6
3 16 11 5 1 7 31 11 21 1 7 12 20 18 12 6 7 9 8 10 11 11 9 8 6 5 7 12 8 3 2 0 0 1 5 9 11 9 9 8 5 5 7 15
7 5 18 17 12 11 7 11 54 7 12 8 6 9 9 9 12 12 12 10 9 8 5 5 6 11 12 3 2 1 1 2 4 8 11 9 10 7 4 5 7 19 23 19
11 12 4 5 28 7 10 10 11 10 10 11 11 8 10 10 9 9 8 6 4 5 7 10 14 3 2 2 0 2 3 7 11 8 10 6 3 6 6 12 20 19 20 21
9 11 12 11 2 10 8 11 11 10 9 10 8 8 8 7 6 5 5 5 8 10 13 8 2 2 1 1 4 5 10 8 9 6 3 5 5 6 22 20 18 18 22 24
9 10 12 12 12 12 8 10 8 5 7 8 8 7 6 6 8 9 10 10 9 13 5 3 1 1 5 4 8 8 7 7 4 5 6 7 10 21 23 20 19 25 25 23
9 10 10 9 9 10 8 7 7 6 8 8 8 10 11 12 12 12 9 13 11 5 3 2 4 5 7 7 5 9 6 5 6 6 5 17 25 23 18 23 25 30 28 19
12 9 9 7 6 7 7 7 7 9 11 11 12 12 11 9 11 11 15 7 4 2 3 5 6 6 6 7 9 6 5 7 6 5 25 25 20 16 25 25 29 18 11 18
11 10 8 6 4 7 4 8 10 11 9 10 11 7 7 12 15 10 6 4 3 5 4 6 6 6 8 7 5 6 7 6 9 25 24 18 16 25 21 20 12 11 24 11
13 10 10 7 5 5 4 8 9 9 8 8 7 7 7 13 10 7 5 5 4 5 7 5 7 8 6 6 6 6 6 9 25 30 18 18 23 18 19 16 18 25 6 6
11 11 11 8 6 4 5 7 9 7 6 5 6 6 7 11 9 5 5 4 5 7 5 8 8 5 6 6 5 4 10 28 32 17 18 18 18 13 14 13 24 8 4 5
18 8 11 10 7 5 4 6 8 5 11 7 5 5 9 12 7 5 5 5 6 6 8 7 6 6 5 5 4 11 30 31 18 15 15 22 6 17 17 21 15 6 6 10
7 19 7 10 5 7 5 4 6 3 11 14 10 9 11 8 7 5 5 7 6 7 7 6 5 5 4 4 11 30 31 20 14 15 15 20 6 17 19 17 7 6 7 12
5 11 12 7 3 7 8 3 7 6 5 21 13 8 9 6 5 5 7 6 8 7 6 5 6 4 3 10 28 32 19 18 16 13 13 18 10 18 18 11 8 5 10 13
Height
5710 5705 5703 5699 5702 5709 5719 5729 5741 5751 5760 5768 5778 5785 5793 5798 5803 5809 5814 5817 5819 5820 5821 5822 5823 5823 5823 5823 5822 5821 5821 5820 5819 5817 5815 5814 5813 5811 5809 5807 5805 5802 5800 5798
5701 5695 5689 5686 5687 5693 5704 5717 5730 5740 5750 5759 5767 5775 5783 5790 5796 5800 5804 5808 5812 5814 5817 5818 5818 5819 5818 5817 5816 5817 5815 5814 5812 5811 5809 5807 5805 5803 5801 5799 5797 5794 5791 5788
5690 5686 5681 5679 5681 5686 5696 5709 5723 5735 5742 5750 5759 5767 5774 5782 5788 5792 5796 5801 5805 5808 5810 5810 5812 5813 5812 5811 5809 5808 5807 5806 5806 5804 5801 5799 5796 5795 5792 5790 5788 5785 5782 5779
5685 5680 5677 5675 5677 5683 5694 5708 5718 5729 5736 5744 5752 5760 5768 5775 5781 5786 5790 5794 5798 5801 5804 5805 5807 5807 5806 5805 5804 5801 5799 5799 5798 5796 5793 5791 5789 5786 5784 5781 5778 5775 5772 5769
5683 5678 5676 5674 5679 5685 5697 5708 5717 5726 5734 5740 5747 5754 5762 5768 5774 5780 5784 5788 5791 5794 5797 5797 5799 5800 5799 5798 5797 5795 5793 5792 5790 5788 5786 5783 5780 5778 5774 5771 5768 5765 5762 5759
5682 5679 5679 5679 5682 5688 5698 5709 5716 5723 5729 5735 5743 5749 5759 5762 5768 5773 5777 5781 5784 5786 5788 5790 5792 5792 5792 5790 5789 5788 5787 5784 5782 5780 5778 5775 5772 5769 5766 5762 5759 5755 5752 5748
5686 5684 5683 5685 5688 5692 5700 5706 5711 5719 5726 5733 5741 5745 5753 5758 5762 5767 5771 5774 5777 5779 5782 5783 5784 5784 5784 5784 5782 5781 5779 5777 5775 5772 5769 5767 5763 5759 5756 5752 5749 5745 5741 5737
5688 5688 5687 5688 5692 5696 5700 5708 5714 5719 5724 5732 5738 5740 5750 5754 5757 5761 5765 5768 5771 5773 5775 5775 5776 5776 5777 5777 5776 5774 5772 5769 5766 5764 5761 5757 5754 5750 5747 5742 5738 5733 5728 5723
5687 5687 5690 5692 5695 5700 5703 5706 5712 5717 5723 5730 5734 5740 5746 5749 5753 5756 5759 5762 5764 5766 5767 5769 5769 5770 5770 5769 5767 5765 5763 5761 5758 5754 5751 5748 5744 5740 5735 5730 5725 5719 5713 5707
5696 5694 5695 5696 5698 5701 5705 5709 5714 5718 5724 5729 5733 5738 5743 5746 5749 5751 5754 5756 5758 5759 5761 5762 5763 5763 5762 5761 5760 5758 5755 5752 5749 5746 5742 5738 5733 5728 5722 5716 5710 5704 5697 5690
5702 5700 5699 5699 5701 5702 5706 5710 5715 5719 5724 5727 5732 5736 5740 5743 5746 5747 5749 5751 5752 5754 5755 5756 5756 5756 5755 5754 5752 5750 5746 5743 5739 5736 5732 5727 5722 5716 5709 5702 5694 5686 5678 5669
5705 5703 5700 5698 5702 5705 5709 5711 5715 5718 5723 5726 5729 5733 5735 5739 5741 5743 5745 5747 5748 5749 5749 5749 5749 5748 5747 5746 5743 5740 5737 5734 5731 5726 5722 5716 5709 5701 5693 5685 5676 5667 5658 5649
5709 5706 5706 5705 5708 5708 5710 5713 5716 5719 5722 5723 5726 5731 5731 5734 5737 5739 5741 5742 5743 5743 5743 5743 5742 5741 5740 5737 5734 5731 5729 5725 5721 5715 5709 5701 5693 5684 5676 5667 5658 5649 5639 5630
5713 5709 5708 5710 5709 5709 5709 5711 5716 5719 5721 5723 5725 5727 5729 5732 5734 5735 5736 5737 5738 5738 5737 5736 5735 5734 5731 5729 5726 5723 5719 5714 5708 5701 5693 5685 5677 5668 5658 5649 5640 5630 5620 5609
5715 5713 5710 5710 5712 5713 5713 5714 5715 5717 5719 5722 5723 5725 5726 5728 5729 5730 5731 5731 5732 5731 5731 5730 5728 5725 5723 5721 5717 5713 5708 5701 5694 5687 5679 5670 5660 5651 5641 5631 5619 5606 5594 5583
5716 5715 5714 5713 5713 5714 5714 5715 5716 5718 5719 5720 5722 5722 5723 5724 5724 5725 5726 5726 5726 5725 5724 5722 5720 5718 5715 5712 5707 5701 5695 5689 5681 5672 5663 5653 5643 5632 5619 5606 5594 5583 5573 5563
5716 5715 5714 5713 5713 5714 5715 5715 5716 5717 5717 5718 5718 5719 5720 5720 5720 5721 5721 5720 5719 5719 5717 5715 5713 5710 5707 5702 5697 5690 5682 5674 5665 5655 5646 5635 5622 5609 5598 5586 5575 5565 5556 5546
5715 5714 5713 5713 5713 5714 5714 5714 5715 5715 5715 5716 5716 5717 5717 5717 5717 5716 5715 5714 5713 5712 5711 5709 5706 5702 5697 5691 5684 5676 5667 5658 5649 5638 5626 5615 5603 5591 5579 5569 5558 5548 5539 5532
5713 5713 5712 5713 5712 5714 5713 5713 5713 5712 5713 5713 5713 5713 5712 5712 5712 5711 5710 5709 5708 5706 5704 5701 5697 5692 5685 5678 5670 5661 5653 5643 5632 5621 5609 5597 5585 5574 5563 5552 5542 5533 5527 5521
5711 5711 5711 5711 5711 5711 5710 5710 5710 5710 5710 5709 5709 5708 5708 5707 5706 5705 5704 5703 5702 5700 5697 5693 5687 5680 5673 5665 5657 5648 5638 5627 5616 5604 5591 5579 5569 5558 5548 5539 5530 5524 5518 5514
5707 5708 5708 5708 5708 5708 5706 5706 5706 5707 5708 5705 5704 5704 5703 5702 5701 5700 5699 5698 5696 5693 5688 5683 5677 5669 5662 5653 5643 5634 5623 5612 5599 5586 5574 5564 5555 5546 5537 5529 5523 5517 5512 5508
5703 5704 5705 5705 5705 5705 5704 5703 5703 5702 5701 5700 5700 5699 5698 5696 5695 5695 5693 5691 5688 5684 5679 5673 5666 5658 5649 5639 5630 5619 5607 5595 5583 5571 5562 5553 5544 5536 5528 5522 5516 5510 5507 5503
5698 5699 5701 5702 5701 5700 5700 5700 5699 5697 5696 5696 5695 5694 5693 5691 5690 5689 5687 5684 5680 5675 5669 5662 5654 5646 5636 5626 5615 5603 5591 5579 5567 5559 5551 5542 5534 5528 5521 5515 5510 5505 5501 5497
5692 5692 5694 5696 5695 5696 5696 5696 5695 5694 5693 5691 5689 5688 5687 5686 5684 5683 5680 5676 5671 5665 5658 5651 5642 5633 5623 5612 5600 5588 5575 5564 5556 5548 5541 5534 5528 5520 5514 5509 5505 5501 5496 5492
5686 5686 5687 5689 5688 5690 5691 5690 5690 5689 5688 5686 5684 5683 5681 5680 5679 5676 5672 5668 5662 5656 5649 5640 5631 5621 5610 5598 5585 5572 5561 5552 5545 5539 5532 5526 5520 5514 5508 5504 5500 5496 5491 5486
5679 5680 5680 5681 5681 5685 5685 5684 5684 5683 5681 5680 5678 5677 5676 5674 5672 5669 5665 5660 5654 5647 5639 5630 5620 5609 5597 5583 5569 5557 5549 5542 5536 5530 5523 5518 5513 5508 5503 5500 5496 5487 5483 5478